#timestamp,LO_Frequency,Hit 
1498039215.7,286047022.1,N
1498039235.5,286047021.1,N
1498039255.3,286047023.6,N
1498039275.2,286047037.3,N
1498039295.9,286047060.5,N
1498039315.7,286047086.1,N
1498039335.6,286047078.9,N
1498039355.4,286047064.4,N
1498039375.2,286047048.6,N
1498039395.1,286047041.4,N
1498039396.0,286047041.4,N
1498039415.8,286047051.6,N
1498039435.6,286047050.5,N
1498039455.4,286047060.6,N
1498039475.3,286047061.2,N
1498039495.1,286047048.4,N
1498039515.8,286047041.4,N
1498039535.7,286047042.1,N
1498039555.5,286047072.6,N
1498039575.3,286047060.7,N
1498039595.2,286047047.8,N
1498039615.9,286047044.1,N
1498039635.7,286047048.9,N
1498039655.6,286047047.6,N
1498039675.4,286047045.3,N
1498039695.2,286047036.0,N
1498039715.0,286047029.2,N
1498039715.9,286047029.2,N
1498039735.8,286047022.2,N
1498039755.6,286047029.4,N
1498039775.4,286047037.0,N
1498039795.3,286047039.5,N
1498039815.1,286047033.5,N
1498039835.8,286047036.5,N
1498039855.7,286047031.7,N
1498039875.5,286047031.5,N
1498039895.3,286047025.2,N
1498039915.2,286047033.3,N
1498039935.9,286047048.4,N
1498039955.7,286047052.8,N
1498039975.5,286047048.9,N
1498039995.4,286047044.1,N
1498040015.2,286047034.0,N
1498040035.0,286047024.1,N
1498040035.9,286047024.1,N
1498040055.8,286047026.7,N
1498040075.6,286047024.0,N
1498040095.4,286047017.0,N
1498040115.3,286047018.7,N
1498040135.1,286047040.7,N
1498040136.0,286047040.7,N
1498040155.8,286047034.7,N
1498040175.7,286047028.0,N
1498040195.5,286047015.0,N
1498040215.3,286047011.7,N
1498040235.1,286047005.2,N
1498040255.9,286047001.7,N
1498040275.7,286047007.4,N
1498040295.5,286047004.4,N
1498040315.4,286046998.5,N
1498040335.2,286046997.6,N
1498040355.0,286046990.4,N
1498040355.9,286046990.4,N
1498040375.8,286046992.7,N
1498040395.6,286046990.4,N
1498040415.4,286046999.9,N
1498040435.3,286047009.6,N
1498040455.1,286047005.9,N
1498040456.0,286047005.9,N
1498040475.8,286046998.1,N
1498040495.6,286046993.9,N
1498040515.5,286046994.5,N
1498040535.3,286046988.4,N
1498040555.1,286046996.1,N
1498040575.9,286046986.2,N
1498040595.7,286046977.7,N
1498040615.5,286046992.9,N
1498040635.4,286047024.4,N
1498040655.2,286047029.9,N
1498040675.0,286047028.6,N
1498040675.9,286047028.6,N
1498040695.8,286047037.3,N
1498040715.6,286047036.7,N
1498040735.4,286047039.5,N
1498040755.2,286047034.1,N
1498040775.1,286047028.4,N
1498040776.0,286047028.4,N
1498040795.8,286047029.7,N
1498040815.3,286047038.4,N
1498040835.1,286047053.8,N
1498040855.9,286047033.6,N
1498040875.7,286047029.4,N
1498040895.5,286047019.3,N
1498040915.4,286047008.8,N
1498040935.2,286046999.3,N
1498040955.0,286046990.5,N
1498040955.9,286046990.5,N
1498040975.8,286046982.4,N
1498040995.6,286046978.8,N
1498041015.4,286046971.2,N
1498041035.2,286046977.5,N
1498041055.1,286046982.4,N
1498041056.0,286046982.4,N
1498041075.8,286046990.4,N
1498041095.6,286046994.3,N
1498041115.5,286046992.1,N
1498041135.3,286047010.9,N
1498041155.1,286047025.2,N
1498041175.9,286047033.8,N
1498041195.7,286047028.6,N
1498041215.5,286047042.5,N
1498041235.4,286047027.4,N
1498041255.2,286047023.1,N
1498041275.0,286047011.5,N
1498041275.9,286047011.5,N
1498041295.8,286047013.7,N
1498041315.6,286047011.4,N
1498041335.4,286047004.4,N
1498041355.2,286046997.6,N
1498041375.1,286046989.0,N
1498041376.0,286046989.0,N
1498041395.8,286046984.9,N
1498041415.6,286046981.9,N
1498041435.5,286046983.0,N
1498041455.3,286046981.4,N
1498041475.1,286046977.1,N
1498041495.9,286046975.0,N
1498041515.7,286046975.6,N
1498041535.5,286046976.9,N
1498041555.4,286046972.9,N
1498041575.2,286046978.2,N
1498041595.0,286046968.9,N
1498041595.9,286046968.9,N
1498041615.7,286046975.2,N
1498041635.6,286046987.7,N
1498041655.4,286046990.2,N
1498041675.2,286047005.5,N
1498041695.1,286047004.3,N
1498041696.0,286047004.3,N
1498041715.8,286046993.0,N
1498041735.6,286046981.2,N
1498041755.6,286046977.0,N
1498041775.4,286046970.3,N
1498041795.3,286046960.0,N
1498041815.1,286046953.9,N
1498041816.0,286046953.9,N
1498041835.8,286046943.9,N
1498041855.7,286046939.3,N
1498041875.5,286046943.4,N
1498041895.3,286046938.4,N
1498041915.1,286046936.3,N
1498041935.9,286046932.8,N
1498041955.4,286046928.1,N
1498041975.2,286046924.1,N
1498041995.1,286046920.3,N
1498041996.0,286046920.3,N
1498042015.8,286046919.5,N
1498042035.6,286046916.1,N
1498042055.5,286046917.7,N
1498042075.3,286046913.6,N
1498042095.1,286046929.2,N
1498042115.9,286046943.2,N
1498042135.7,286046958.7,N
1498042155.5,286046950.9,N
1498042175.4,286046965.2,N
1498042195.2,286046991.7,N
1498042215.0,286046989.2,N
1498042215.9,286046989.2,N
1498042235.8,286046996.1,N
1498042255.6,286046992.2,N
1498042275.4,286046985.7,N
1498042295.2,286047004.6,N
1498042315.1,286046995.1,N
1498042335.9,286047002.3,N
1498042355.7,286047013.1,N
1498042375.5,286046999.0,N
1498042395.3,286046986.5,N
1498042415.2,286046980.5,N
1498042435.0,286046982.6,N
1498042435.9,286046982.6,N
1498042455.7,286047005.0,N
1498042475.6,286047046.7,N
1498042495.4,286047086.7,N
1498042515.2,286047114.7,N
1498042535.1,286047121.5,N
1498042536.0,286047121.5,N
1498042555.8,286047130.5,N
1498042575.6,286047125.8,N
1498042595.5,286047130.7,N
1498042615.3,286047152.2,N
1498042635.1,286047160.6,N
1498042655.8,286047190.5,N
1498042675.7,286047206.2,N
1498042695.5,286047197.9,N
1498042715.3,286047237.5,N
1498042735.2,286047232.6,N
1498042755.9,286047231.4,N
1498042775.7,286047213.0,N
1498042795.6,286047201.4,N
